| time (UTC) | temp F | wind direction | speed MPH | gust MPH | rain 1hr in | rain 24hr in | rain mn in | humidity % | barometer mb |
| 20260510103705 | 47 | 12 | 3.0 | 9.0 | 0.00 | 0.34 | 0.00 | 86 | 1013.4 |
| 20260510103205 | 47 | 21 | 3.0 | 8.0 | 0.00 | 0.34 | 0.00 | 86 | 1013.4 |
| 20260510102704 | 47 | 23 | 2.0 | 7.0 | 0.00 | 0.34 | 0.00 | 86 | 1013.0 |
| 20260510101205 | 47 | 17 | 2.0 | 5.0 | 0.00 | 0.34 | 0.00 | 85 | 1013.0 |
| 20260510100204 | 47 | 37 | 0.0 | 8.0 | 0.00 | 0.34 | 0.00 | 85 | 1013.1 |
| 20260510095705 | 47 | 21 | 2.0 | 6.0 | 0.00 | 0.34 | 0.00 | 85 | 1013.0 |
| 20260510095205 | 47 | 27 | 4.0 | 7.0 | 0.00 | 0.34 | 0.00 | 85 | 1013.0 |
| 20260510094704 | 48 | 34 | 2.0 | 6.0 | 0.00 | 0.34 | 0.00 | 85 | 1013.0 |
| 20260510094204 | 48 | 28 | 3.0 | 7.0 | 0.00 | 0.34 | 0.00 | 85 | 1012.7 |
| 20260510093205 | 48 | 6 | 2.0 | 9.0 | 0.00 | 0.34 | 0.00 | 85 | 1012.6 |
| 20260510092705 | 48 | 40 | 3.0 | 10.0 | 0.00 | 0.34 | 0.00 | 85 | 1012.6 |
| 20260510091204 | 48 | 39 | 2.0 | 6.0 | 0.00 | 0.34 | 0.00 | 86 | 1012.1 |
| 20260510090705 | 48 | 19 | 1.0 | 3.0 | 0.00 | 0.34 | 0.00 | 85 | 1012.2 |
| 20260510090204 | 48 | 18 | 0.0 | 5.0 | 0.00 | 0.34 | 0.00 | 86 | 1011.9 |
| 20260510085705 | 48 | 29 | 0.0 | 0.0 | 0.00 | 0.34 | 0.00 | 85 | 1011.9 |
| 20260510085205 | 48 | 29 | 0.0 | 0.0 | 0.00 | 0.34 | 0.00 | 85 | 1011.9 |
| 20260510084705 | 48 | 29 | 0.0 | 0.0 | 0.00 | 0.34 | 0.00 | 84 | 1011.7 |
| 20260510084204 | 48 | 28 | 0.0 | 0.0 | 0.00 | 0.34 | 0.00 | 84 | 1011.7 |
| 20260510083704 | 48 | 38 | 0.0 | 0.0 | 0.00 | 0.34 | 0.00 | 83 | 1011.7 |
| 20260510083204 | 48 | 38 | 0.0 | 0.0 | 0.00 | 0.34 | 0.00 | 82 | 1011.7 |
| 20260510082704 | 48 | 40 | 0.0 | 0.0 | 0.00 | 0.34 | 0.00 | 81 | 1010.9 |
| 20260510082205 | 48 | 40 | 0.0 | 0.0 | 0.00 | 0.34 | 0.00 | 81 | 1010.9 |
| 20260510081704 | 49 | 40 | 0.0 | 0.0 | 0.00 | 0.34 | 0.00 | 81 | 1010.9 |
| 20260510081205 | 49 | 40 | 0.0 | 0.0 | 0.00 | 0.34 | 0.00 | 81 | 1010.9 |
| 20260510080704 | 49 | 40 | 0.0 | 0.0 | 0.00 | 0.34 | 0.00 | 81 | 1010.9 |
| 20260510075704 | 49 | 40 | 0.0 | 0.0 | 0.00 | 0.34 | 0.00 | 81 | 1010.9 |
| 20260510075204 | 49 | 40 | 0.0 | 0.0 | 0.00 | 0.34 | 0.00 | 81 | 1010.8 |
| 20260510073204 | 50 | 39 | 0.0 | 0.0 | 0.00 | 0.34 | 0.00 | 79 | 1010.6 |
| 20260510072704 | 50 | 33 | 0.0 | 0.0 | 0.00 | 0.34 | 0.00 | 79 | 1010.6 |
| 20260510072204 | 50 | 32 | 0.0 | 0.0 | 0.00 | 0.34 | 0.00 | 79 | 1010.5 |
| 20260510071704 | 50 | 32 | 0.0 | 1.0 | 0.00 | 0.34 | 0.00 | 79 | 1010.5 |
| 20260510071204 | 51 | 33 | 1.0 | 2.0 | 0.00 | 0.34 | 0.00 | 78 | 1010.5 |
| 20260510065204 | 51 | 51 | 2.0 | 8.0 | 0.00 | 0.34 | 0.00 | 78 | 1010.3 |
| 20260510064704 | 51 | 40 | 3.0 | 6.0 | 0.00 | 0.34 | 0.00 | 79 | 1010.3 |
| 20260510063705 | 51 | 64 | 3.0 | 6.0 | 0.00 | 0.34 | 0.00 | 79 | 1010.2 |
| 20260510062704 | 51 | 65 | 4.0 | 8.0 | 0.00 | 0.34 | 0.00 | 80 | 1010.2 |
| 20260510062204 | 51 | 69 | 3.0 | 9.0 | 0.00 | 0.34 | 0.00 | 80 | 1010.2 |
| 20260510061204 | 51 | 66 | 5.0 | 8.0 | 0.00 | 0.34 | 0.00 | 82 | 1010.3 |
| 20260510060704 | 51 | 40 | 2.0 | 7.0 | 0.00 | 0.34 | 0.00 | 82 | 1009.9 |
| 20260510055705 | 52 | 28 | 4.0 | 12.0 | 0.00 | 0.34 | 0.00 | 83 | 1009.9 |
| 20260510055205 | 52 | 50 | 9.0 | 14.0 | 0.00 | 0.34 | 0.00 | 83 | 1009.9 |
| 20260510054704 | 53 | 41 | 5.0 | 14.0 | 0.00 | 0.34 | 0.00 | 83 | 1009.9 |
| 20260510054204 | 54 | 19 | 9.0 | 13.0 | 0.00 | 0.34 | 0.00 | 85 | 1009.9 |
| 20260510053204 | 55 | 29 | 5.0 | 13.0 | 0.00 | 0.34 | 0.00 | 88 | 1009.4 |
| 20260510052705 | 55 | 49 | 2.0 | 5.0 | 0.00 | 0.34 | 0.00 | 88 | 1009.4 |
| 20260510052204 | 56 | 9 | 0.0 | 0.0 | 0.00 | 0.34 | 0.00 | 87 | 1009.1 |
| 20260510051704 | 56 | 9 | 0.0 | 0.0 | 0.00 | 0.34 | 0.00 | 87 | 1009.1 |
| 20260510051204 | 56 | 9 | 0.0 | 2.0 | 0.00 | 0.34 | 0.00 | 87 | 1009.0 |
| 20260510050704 | 56 | 305 | 0.0 | 3.0 | 0.00 | 0.34 | 0.00 | 87 | 1009.0 |
| 20260510050204 | 56 | 297 | 4.0 | 7.0 | 0.00 | 0.34 | 0.00 | 88 | 1009.0 |
| 20260510045705 | 55 | 305 | 0.0 | 7.0 | 0.00 | 0.34 | 0.00 | 88 | 1007.8 |
| 20260510045204 | 55 | 18 | 1.0 | 6.0 | 0.00 | 0.34 | 0.00 | 88 | 1007.8 |
| 20260510044704 | 55 | 8 | 3.0 | 7.0 | 0.00 | 0.34 | 0.00 | 88 | 1007.8 |
| 20260510044204 | 55 | 250 | 1.0 | 6.0 | 0.00 | 0.35 | 0.00 | 87 | 1007.8 |
| 20260510043704 | 55 | 207 | 0.0 | 3.0 | 0.00 | 0.35 | 0.00 | 87 | 1007.4 |
| 20260510043205 | 55 | 210 | 0.0 | 0.0 | 0.00 | 0.35 | 0.00 | 87 | 1007.4 |
| 20260510042204 | 56 | 181 | 0.0 | 0.0 | 0.00 | 0.35 | 0.00 | 86 | 1007.2 |
| 20260510041704 | 56 | 195 | 0.0 | 0.0 | 0.00 | 0.35 | 0.00 | 86 | 1007.2 |
| 20260510041205 | 56 | 180 | 0.0 | 1.0 | 0.00 | 0.35 | 0.00 | 85 | 1007.2 |
| 20260510040704 | 56 | 189 | 3.0 | 6.0 | 0.00 | 0.35 | 0.00 | 85 | 1007.2 |
| 20260510040205 | 56 | 236 | 0.0 | 5.0 | 0.00 | 0.35 | 0.00 | 85 | 1007.2 |
| 20260510034204 | 56 | 239 | 3.0 | 14.0 | 0.00 | 0.36 | 0.35 | 88 | 1007.2 |
| 20260510033704 | 56 | 205 | 0.0 | 6.0 | 0.00 | 0.36 | 0.35 | 89 | 1007.3 |
| 20260510033205 | 56 | 224 | 4.0 | 10.0 | 0.00 | 0.36 | 0.35 | 89 | 1007.5 |
| 20260510032205 | 55 | 251 | 2.0 | 13.0 | 0.00 | 0.36 | 0.35 | 89 | 1007.5 |
| 20260510031204 | 55 | 242 | 4.0 | 10.0 | 0.00 | 0.36 | 0.35 | 90 | 1007.4 |
| 20260510030704 | 55 | 235 | 1.0 | 10.0 | 0.00 | 0.36 | 0.35 | 91 | 1007.4 |
| 20260510030205 | 55 | 225 | 2.0 | 8.0 | 0.00 | 0.36 | 0.35 | 92 | 1007.2 |
| 20260510025205 | 55 | 191 | 2.0 | 5.0 | 0.00 | 0.36 | 0.35 | 92 | 1007.2 |
| 20260510024705 | 55 | 191 | 2.0 | 6.0 | 0.00 | 0.36 | 0.35 | 92 | 1007.2 |
| 20260510024204 | 55 | 187 | 2.0 | 5.0 | 0.00 | 0.36 | 0.35 | 92 | 1007.1 |
| 20260510023704 | 55 | 215 | 1.0 | 5.0 | 0.00 | 0.36 | 0.35 | 92 | 1007.1 |
| 20260510023204 | 55 | 238 | 2.0 | 12.0 | 0.00 | 0.36 | 0.35 | 93 | 1007.4 |
| 20260510022704 | 55 | 246 | 2.0 | 12.0 | 0.00 | 0.36 | 0.35 | 94 | 1006.8 |
| 20260510022204 | 54 | 212 | 5.0 | 12.0 | 0.00 | 0.36 | 0.35 | 94 | 1006.8 |
| 20260510021705 | 54 | 230 | 0.0 | 2.0 | 0.00 | 0.36 | 0.35 | 94 | 1006.8 |
| 20260510021204 | 54 | 186 | 0.0 | 0.0 | 0.00 | 0.36 | 0.35 | 94 | 1006.8 |
| 20260510020704 | 54 | 187 | 0.0 | 0.0 | 0.00 | 0.36 | 0.35 | 94 | 1006.8 |
| 20260510020204 | 54 | 185 | 0.0 | 0.0 | 0.00 | 0.36 | 0.35 | 93 | 1006.8 |
| 20260510015704 | 54 | 176 | 0.0 | 0.0 | 0.00 | 0.36 | 0.35 | 93 | 1006.8 |
| 20260510015204 | 54 | 153 | 0.0 | 0.0 | 0.00 | 0.36 | 0.35 | 93 | 1006.6 |
| 20260510014705 | 54 | 184 | 0.0 | 0.0 | 0.00 | 0.36 | 0.35 | 93 | 1006.6 |
| 20260510014205 | 54 | 202 | 0.0 | 0.0 | 0.00 | 0.36 | 0.35 | 93 | 1006.6 |
| 20260510013704 | 54 | 175 | 0.0 | 0.0 | 0.00 | 0.36 | 0.35 | 93 | 1006.6 |
| 20260510013204 | 54 | 177 | 0.0 | 0.0 | 0.00 | 0.36 | 0.35 | 93 | 1006.6 |
| 20260510012704 | 54 | 170 | 0.0 | 0.0 | 0.00 | 0.36 | 0.35 | 92 | 1006.5 |
| 20260510012205 | 54 | 184 | 0.0 | 0.0 | 0.00 | 0.36 | 0.35 | 92 | 1006.5 |
| 20260510011705 | 54 | 177 | 0.0 | 0.0 | 0.00 | 0.36 | 0.35 | 92 | 1006.5 |
| 20260510011204 | 54 | 184 | 0.0 | 0.0 | 0.00 | 0.36 | 0.35 | 92 | 1006.5 |
| 20260510010204 | 55 | 203 | 0.0 | 0.0 | 0.01 | 0.36 | 0.35 | 92 | 1006.5 |
| 20260510005705 | 55 | 219 | 0.0 | 0.0 | 0.01 | 0.37 | 0.35 | 92 | 1006.4 |
| 20260510004204 | 55 | 195 | 0.0 | 0.0 | 0.01 | 0.37 | 0.35 | 92 | 1006.4 |
| 20260510003205 | 55 | 202 | 0.0 | 0.0 | 0.01 | 0.37 | 0.35 | 91 | 1006.4 |
| 20260510002704 | 56 | 180 | 0.0 | 0.0 | 0.01 | 0.37 | 0.35 | 92 | 1006.3 |
| 20260510002204 | 56 | 230 | 0.0 | 1.0 | 0.01 | 0.37 | 0.35 | 92 | 1006.3 |
| 20260510001704 | 56 | 235 | 1.0 | 7.0 | 0.01 | 0.38 | 0.35 | 92 | 1006.3 |
| 20260510001205 | 56 | 245 | 2.0 | 6.0 | 0.01 | 0.38 | 0.35 | 92 | 1006.3 |
| 20260510000704 | 56 | 271 | 3.0 | 7.0 | 0.01 | 0.38 | 0.34 | 92 | 1006.4 |
| 20260510000205 | 56 | 250 | 2.0 | 10.0 | 0.01 | 0.38 | 0.34 | 93 | 1006.4 |
| 20260509235704 | 56 | 170 | 0.0 | 0.0 | 0.01 | 0.38 | 0.34 | 93 | 1006.4 |
| 20260509234704 | 56 | 198 | 4.0 | 7.0 | 0.08 | 0.39 | 0.34 | 92 | 1006.1 |
| 20260509234204 | 56 | 202 | 1.0 | 6.0 | 0.21 | 0.39 | 0.34 | 92 | 1006.3 |
| 20260509233705 | 56 | 197 | 3.0 | 9.0 | 0.31 | 0.40 | 0.34 | 92 | 1006.3 |
| 20260509233204 | 56 | 255 | 2.0 | 7.0 | 0.33 | 0.40 | 0.34 | 92 | 1006.3 |
| 20260509232704 | 56 | 225 | 3.0 | 8.0 | 0.33 | 0.41 | 0.34 | 92 | 1006.3 |
| 20260509231204 | 56 | 263 | 5.0 | 22.0 | 0.33 | 0.42 | 0.34 | 91 | 1006.3 |
| 20260509230704 | 56 | 271 | 4.0 | 10.0 | 0.32 | 0.42 | 0.33 | 91 | 1006.3 |
| 20260509225704 | 56 | 301 | 7.0 | 12.0 | 0.32 | 0.42 | 0.33 | 90 | 1006.2 |
| 20260509225204 | 56 | 296 | 7.0 | 16.0 | 0.30 | 0.41 | 0.31 | 88 | 1004.2 |
| 20260509224705 | 58 | 313 | 12.0 | 26.0 | 0.25 | 0.37 | 0.26 | 85 | 1004.2 |
| 20260509224205 | 60 | 311 | 20.0 | 32.0 | 0.12 | 0.26 | 0.13 | 79 | 1004.2 |
| 20260509223704 | 65 | 309 | 18.0 | 39.0 | 0.02 | 0.17 | 0.03 | 70 | 1004.2 |
| 20260509223205 | 67 | 280 | 9.0 | 18.0 | 0.00 | 0.16 | 0.01 | 60 | 1004.2 |
| 20260509222704 | 68 | 238 | 5.0 | 10.0 | 0.00 | 0.16 | 0.01 | 61 | 1003.7 |
| 20260509222205 | 68 | 266 | 6.0 | 10.0 | 0.00 | 0.16 | 0.01 | 56 | 1003.3 |
| 20260509221705 | 69 | 242 | 3.0 | 9.0 | 0.00 | 0.16 | 0.01 | 57 | 1003.6 |
| 20260509221204 | 69 | 221 | 6.0 | 13.0 | 0.00 | 0.17 | 0.01 | 56 | 1003.6 |
| 20260509220704 | 69 | 202 | 3.0 | 13.0 | 0.00 | 0.17 | 0.01 | 57 | 1003.8 |
| 20260509215704 | 69 | 241 | 6.0 | 15.0 | 0.00 | 0.18 | 0.01 | 56 | 1003.5 |
| 20260509214204 | 71 | 195 | 8.0 | 16.0 | 0.00 | 0.18 | 0.01 | 54 | 1003.5 |
| 20260509213705 | 72 | 237 | 7.0 | 24.0 | 0.00 | 0.18 | 0.01 | 54 | 1003.5 |
| 20260509212704 | 71 | 187 | 7.0 | 18.0 | 0.00 | 0.18 | 0.01 | 56 | 1003.6 |
| 20260509212205 | 71 | 237 | 9.0 | 20.0 | 0.00 | 0.18 | 0.01 | 55 | 1003.6 |
| 20260509211204 | 71 | 193 | 9.0 | 16.0 | 0.00 | 0.18 | 0.01 | 57 | 1003.6 |
| 20260509210704 | 71 | 194 | 8.0 | 22.0 | 0.00 | 0.18 | 0.01 | 57 | 1003.6 |
| 20260509210205 | 71 | 235 | 9.0 | 20.0 | 0.00 | 0.18 | 0.01 | 56 | 1003.6 |
| 20260509205705 | 71 | 207 | 7.0 | 20.0 | 0.00 | 0.18 | 0.01 | 58 | 1004.1 |
| 20260509204704 | 71 | 178 | 4.0 | 15.0 | 0.00 | 0.18 | 0.01 | 60 | 1004.1 |
| 20260509204205 | 71 | 244 | 5.0 | 13.0 | 0.00 | 0.18 | 0.01 | 56 | 1004.1 |
| 20260509203205 | 71 | 234 | 7.0 | 15.0 | 0.00 | 0.18 | 0.01 | 55 | 1004.2 |
| 20260509202705 | 71 | 195 | 6.0 | 22.0 | 0.00 | 0.19 | 0.01 | 58 | 1004.6 |
| 20260509202204 | 70 | 246 | 7.0 | 15.0 | 0.00 | 0.19 | 0.01 | 57 | 1004.6 |
| 20260509201704 | 70 | 245 | 7.0 | 12.0 | 0.00 | 0.19 | 0.01 | 56 | 1004.6 |
| 20260509201204 | 70 | 191 | 10.0 | 21.0 | 0.00 | 0.19 | 0.01 | 57 | 1004.6 |
| 20260509200704 | 71 | 225 | 9.0 | 18.0 | 0.00 | 0.19 | 0.01 | 55 | 1004.6 |
| 20260509200205 | 71 | 237 | 7.0 | 18.0 | 0.00 | 0.19 | 0.01 | 56 | 1004.9 |
| 20260509195704 | 71 | 193 | 5.0 | 12.0 | 0.00 | 0.19 | 0.01 | 57 | 1004.9 |
| 20260509194705 | 71 | 187 | 6.0 | 14.0 | 0.00 | 0.19 | 0.01 | 59 | 1004.9 |
| 20260509193705 | 71 | 242 | 7.0 | 15.0 | 0.00 | 0.19 | 0.01 | 58 | 1005.3 |
| 20260509193204 | 71 | 192 | 8.0 | 20.0 | 0.00 | 0.19 | 0.01 | 58 | 1005.3 |
| 20260509192205 | 71 | 181 | 8.0 | 16.0 | 0.00 | 0.19 | 0.01 | 61 | 1005.3 |
| 20260509191704 | 70 | 204 | 5.0 | 15.0 | 0.00 | 0.19 | 0.01 | 60 | 1005.3 |
| 20260509191204 | 70 | 252 | 1.0 | 14.0 | 0.00 | 0.19 | 0.01 | 59 | 1005.3 |
| 20260509190705 | 69 | 202 | 7.0 | 16.0 | 0.00 | 0.19 | 0.01 | 62 | 1005.7 |
| 20260509190204 | 69 | 224 | 7.0 | 16.0 | 0.00 | 0.19 | 0.01 | 60 | 1005.7 |
| 20260509185704 | 69 | 232 | 7.0 | 15.0 | 0.00 | 0.19 | 0.01 | 64 | 1005.7 |
| 20260509185205 | 68 | 186 | 5.0 | 12.0 | 0.00 | 0.19 | 0.01 | 62 | 1005.7 |
| 20260509184704 | 69 | 236 | 7.0 | 16.0 | 0.00 | 0.19 | 0.01 | 61 | 1005.7 |
| 20260509184205 | 69 | 244 | 6.0 | 12.0 | 0.00 | 0.19 | 0.01 | 61 | 1005.7 |
| 20260509183704 | 68 | 194 | 9.0 | 16.0 | 0.00 | 0.19 | 0.01 | 65 | 1006.0 |
| 20260509183204 | 67 | 223 | 6.0 | 13.0 | 0.00 | 0.19 | 0.01 | 64 | 1006.0 |
| 20260509182705 | 67 | 209 | 5.0 | 13.0 | 0.00 | 0.19 | 0.01 | 63 | 1006.0 |
| 20260509182205 | 68 | 201 | 5.0 | 12.0 | 0.00 | 0.19 | 0.01 | 62 | 1006.0 |
| 20260509181705 | 68 | 197 | 3.0 | 14.0 | 0.00 | 0.19 | 0.01 | 61 | 1006.0 |
| 20260509180205 | 68 | 203 | 7.0 | 13.0 | 0.00 | 0.19 | 0.01 | 64 | 1006.0 |
| 20260509175704 | 68 | 216 | 7.0 | 15.0 | 0.00 | 0.19 | 0.01 | 62 | 1006.0 |
| 20260509175205 | 68 | 237 | 6.0 | 14.0 | 0.00 | 0.19 | 0.01 | 65 | 1006.0 |
| 20260509174704 | 67 | 187 | 1.0 | 13.0 | 0.00 | 0.19 | 0.01 | 66 | 1006.0 |
| 20260509173705 | 67 | 175 | 5.0 | 14.0 | 0.00 | 0.19 | 0.01 | 66 | 1006.0 |
| 20260509173204 | 68 | 250 | 6.0 | 14.0 | 0.00 | 0.19 | 0.01 | 62 | 1006.0 |
| 20260509172705 | 68 | 217 | 7.0 | 14.0 | 0.00 | 0.19 | 0.01 | 62 | 1006.0 |
| 20260509171705 | 68 | 196 | 1.0 | 9.0 | 0.00 | 0.19 | 0.01 | 68 | 1006.0 |
| 20260509171204 | 67 | 179 | 6.0 | 15.0 | 0.00 | 0.19 | 0.01 | 67 | 1006.0 |
| 20260509165705 | 65 | 223 | 5.0 | 10.0 | 0.00 | 0.19 | 0.01 | 66 | 1006.1 |
| 20260509165204 | 66 | 246 | 5.0 | 13.0 | 0.00 | 0.19 | 0.01 | 66 | 1006.0 |
| 20260509164704 | 65 | 198 | 5.0 | 10.0 | 0.00 | 0.19 | 0.01 | 68 | 1006.0 |
| 20260509163705 | 64 | 243 | 3.0 | 12.0 | 0.00 | 0.19 | 0.01 | 70 | 1006.1 |
| 20260509163204 | 64 | 249 | 3.0 | 13.0 | 0.00 | 0.19 | 0.01 | 71 | 1006.7 |
| 20260509161205 | 63 | 192 | 5.0 | 14.0 | 0.00 | 0.19 | 0.01 | 72 | 1006.7 |
| 20260509160205 | 63 | 263 | 3.0 | 12.0 | 0.00 | 0.19 | 0.01 | 73 | 1006.7 |
| 20260509155204 | 63 | 266 | 2.0 | 12.0 | 0.00 | 0.19 | 0.01 | 74 | 1006.8 |
| 20260509154205 | 62 | 239 | 5.0 | 8.0 | 0.00 | 0.19 | 0.01 | 74 | 1006.8 |
| 20260509153705 | 61 | 278 | 3.0 | 13.0 | 0.00 | 0.19 | 0.01 | 76 | 1006.8 |
| 20260509152705 | 62 | 237 | 3.0 | 13.0 | 0.00 | 0.19 | 0.01 | 77 | 1006.8 |
| 20260509151705 | 60 | 263 | 5.0 | 12.0 | 0.00 | 0.19 | 0.01 | 80 | 1006.8 |
| 20260509151204 | 60 | 239 | 6.0 | 12.0 | 0.00 | 0.19 | 0.01 | 80 | 1006.8 |
| 20260509150705 | 60 | 250 | 3.0 | 15.0 | 0.00 | 0.19 | 0.01 | 81 | 1006.8 |
| 20260509150204 | 59 | 238 | 3.0 | 10.0 | 0.00 | 0.19 | 0.01 | 81 | 1006.8 |
| 20260509145704 | 59 | 238 | 3.0 | 8.0 | 0.00 | 0.19 | 0.01 | 83 | 1006.8 |
| 20260509145204 | 59 | 247 | 5.0 | 10.0 | 0.00 | 0.19 | 0.01 | 82 | 1006.8 |
| 20260509144704 | 59 | 247 | 2.0 | 9.0 | 0.00 | 0.19 | 0.01 | 84 | 1006.8 |
| 20260509144204 | 59 | 270 | 3.0 | 10.0 | 0.00 | 0.19 | 0.01 | 84 | 1006.7 |
| 20260509143704 | 59 | 265 | 1.0 | 8.0 | 0.00 | 0.19 | 0.01 | 84 | 1006.7 |
| 20260509142704 | 58 | 226 | 2.0 | 6.0 | 0.00 | 0.19 | 0.01 | 85 | 1006.6 |
| 20260509142204 | 58 | 221 | 5.0 | 8.0 | 0.00 | 0.19 | 0.01 | 86 | 1006.8 |
| 20260509141704 | 57 | 254 | 3.0 | 9.0 | 0.00 | 0.19 | 0.01 | 88 | 1006.8 |
| 20260509141204 | 57 | 237 | 2.0 | 8.0 | 0.00 | 0.19 | 0.01 | 88 | 1006.8 |
| 20260509140704 | 56 | 258 | 2.0 | 7.0 | 0.00 | 0.19 | 0.01 | 89 | 1006.8 |
| 20260509140205 | 56 | 249 | 1.0 | 7.0 | 0.00 | 0.19 | 0.01 | 88 | 1007.0 |
| 20260509134704 | 56 | 182 | 3.0 | 10.0 | 0.00 | 0.19 | 0.01 | 88 | 1006.9 |
| 20260509134205 | 57 | 233 | 3.0 | 13.0 | 0.00 | 0.19 | 0.01 | 89 | 1006.9 |
| 20260509133205 | 57 | 258 | 2.0 | 7.0 | 0.00 | 0.19 | 0.01 | 90 | 1006.9 |
| 20260509132704 | 57 | 225 | 1.0 | 7.0 | 0.00 | 0.19 | 0.01 | 92 | 1007.1 |
| 20260509132204 | 56 | 176 | 2.0 | 9.0 | 0.00 | 0.19 | 0.01 | 92 | 1007.1 |
| 20260509130204 | 54 | 208 | 1.0 | 5.0 | 0.00 | 0.19 | 0.01 | 95 | 1006.8 |
| 20260509125704 | 54 | 187 | 0.0 | 3.0 | 0.00 | 0.19 | 0.01 | 94 | 1006.8 |
| 20260509124705 | 54 | 210 | 0.0 | 5.0 | 0.00 | 0.19 | 0.01 | 95 | 1007.0 |
| 20260509124204 | 54 | 200 | 1.0 | 5.0 | 0.00 | 0.19 | 0.01 | 95 | 1007.0 |
| 20260509123705 | 54 | 229 | 0.0 | 5.0 | 0.00 | 0.20 | 0.01 | 95 | 1007.1 |
| 20260509122705 | 54 | 184 | 0.0 | 3.0 | 0.00 | 0.20 | 0.01 | 96 | 1007.3 |
| 20260509121705 | 53 | 202 | 1.0 | 3.0 | 0.00 | 0.25 | 0.01 | 96 | 1007.3 |
| 20260509121204 | 53 | 159 | 0.0 | 1.0 | 0.00 | 0.25 | 0.01 | 96 | 1007.3 |
| 20260509120705 | 53 | 188 | 1.0 | 7.0 | 0.00 | 0.25 | 0.01 | 96 | 1007.3 |
| 20260509115705 | 53 | 184 | 0.0 | 1.0 | 0.00 | 0.25 | 0.01 | 96 | 1007.3 |
| 20260509115204 | 53 | 209 | 0.0 | 3.0 | 0.00 | 0.25 | 0.01 | 96 | 1007.3 |
| 20260509114704 | 53 | 202 | 0.0 | 6.0 | 0.00 | 0.25 | 0.01 | 96 | 1007.3 |
| 20260509114204 | 53 | 179 | 0.0 | 3.0 | 0.00 | 0.25 | 0.01 | 96 | 1007.3 |
| 20260509113705 | 52 | 182 | 0.0 | 0.0 | 0.00 | 0.25 | 0.01 | 96 | 1007.2 |
| 20260509113204 | 52 | 183 | 0.0 | 0.0 | 0.00 | 0.25 | 0.01 | 96 | 1007.2 |
| 20260509112705 | 52 | 180 | 0.0 | 0.0 | 0.00 | 0.25 | 0.01 | 96 | 1007.2 |
| 20260509110704 | 52 | 160 | 0.0 | 0.0 | 0.00 | 0.25 | 0.01 | 96 | 1007.0 |
| 20260509110205 | 52 | 178 | 0.0 | 0.0 | 0.00 | 0.25 | 0.01 | 96 | 1007.0 |
| 20260509105704 | 52 | 206 | 0.0 | 0.0 | 0.00 | 0.25 | 0.01 | 96 | 1007.0 |
| 20260509105204 | 52 | 232 | 0.0 | 0.0 | 0.00 | 0.25 | 0.01 | 96 | 1006.8 |